Wind_Speed
7 6 5 4 3 3 3 4 6 8 10 12 13 15 17 19 20 22 23 25 26 27 29 30 32 34 36 38 39 40 42 43 44 45 46 46 47 47 46 46 46 45 44
8 7 6 5 5 6 6 8 9 11 13 14 16 18 20 21 23 24 26 27 28 30 31 33 35 37 38 40 41 43 44 46 47 47 48 48 48 48 48 47 47 46 46
9 8 8 8 8 9 10 11 12 14 16 17 19 21 22 24 25 27 28 29 31 32 34 35 37 39 41 42 44 45 46 48 48 49 50 50 50 49 49 49 48 48 48
11 11 10 11 11 12 13 14 15 17 19 21 22 24 25 26 28 29 30 32 33 35 37 38 41 42 44 45 46 47 49 50 50 52 52 52 51 51 50 50 50 50 49
14 14 14 14 15 15 16 18 19 21 22 24 25 27 28 29 31 32 33 34 36 38 40 42 44 45 46 47 49 50 51 52 53 54 54 53 53 52 52 52 51 51 51
17 17 17 17 18 19 20 21 23 24 25 27 28 30 31 32 34 35 36 37 39 41 43 45 46 47 49 50 51 52 53 54 55 56 55 55 54 54 53 53 53 53 53
20 20 20 21 21 22 23 24 26 27 28 29 31 32 34 35 37 38 39 40 42 43 45 47 48 50 51 52 53 54 54 56 57 57 56 55 55 55 55 55 55 55 55
24 23 24 24 25 25 26 27 28 29 31 32 33 35 36 38 39 41 42 43 44 46 48 49 50 52 53 54 55 56 56 58 58 57 56 56 56 56 56 56 56 57 59
26 26 27 27 28 28 29 30 31 32 33 35 36 37 39 40 41 43 44 45 47 48 50 51 52 54 54 55 57 57 58 59 58 57 57 57 57 58 58 59 59 61 63
29 29 30 30 31 31 32 33 34 35 36 37 38 40 41 42 43 45 46 48 49 50 52 53 54 55 56 57 59 60 60 59 59 58 59 59 59 60 60 62 63 65 68
32 32 32 33 34 34 35 36 37 38 39 40 41 42 43 44 46 47 48 49 51 52 54 55 56 57 58 59 61 61 61 60 60 60 60 61 61 62 64 66 68 71 73
35 35 35 36 36 37 38 39 39 40 41 43 44 45 46 47 47 48 50 51 52 54 56 57 57 59 60 61 62 62 61 61 61 62 62 63 64 65 67 70 72 75 77
38 38 38 39 39 40 41 42 43 44 44 45 46 47 48 49 49 50 51 52 54 56 57 58 59 60 61 62 62 62 62 62 63 63 64 65 67 69 72 74 77 80 82
41 41 41 42 42 43 44 45 46 47 47 48 49 49 50 50 51 52 52 54 55 57 58 59 61 62 63 63 63 62 63 64 64 65 66 68 70 73 76 79 81 83 85
44 44 44 45 45 46 47 47 48 49 50 50 51 51 51 51 52 52 53 55 57 58 60 61 63 63 64 64 64 64 64 65 66 67 69 71 74 77 80 83 85 87 89
47 47 47 48 48 49 49 50 50 51 52 52 52 52 52 52 53 54 55 57 58 60 62 63 64 64 65 65 65 65 66 67 68 69 72 75 78 81 83 85 87 89 90
50 50 50 50 51 51 51 52 52 52 53 53 52 52 53 53 55 56 57 59 60 61 63 64 64 65 65 65 65 66 67 68 70 73 76 78 81 84 86 88 89 91 91
52 52 52 52 53 53 53 53 53 53 53 53 53 53 53 54 56 57 59 60 62 63 64 64 64 65 64 65 65 67 68 70 73 76 79 81 84 86 88 89 91 91 90
54 53 53 53 54 54 54 54 54 54 53 53 53 54 55 56 57 59 60 62 63 64 64 64 64 64 64 65 66 68 70 72 75 78 81 83 86 88 89 90 90 90 88
55 54 54 54 54 54 54 54 54 54 54 54 54 55 57 58 59 60 62 63 64 64 65 64 64 64 65 66 67 69 71 74 77 80 82 85 87 88 89 90 90 88 86
55 55 55 55 55 55 55 55 54 55 55 55 56 57 58 59 60 62 63 64 64 64 64 64 64 65 66 67 69 71 73 76 79 81 84 86 88 89 89 89 87 85 82
55 55 55 55 55 55 55 55 55 56 56 56 57 58 60 61 62 63 64 64 64 64 64 65 65 67 68 69 71 74 76 78 80 83 84 86 87 87 87 86 84 82 79
55 55 55 55 55 55 55 54 55 55 56 58 59 60 61 62 63 64 64 64 64 64 65 65 66 68 70 71 74 76 78 80 82 84 85 85 85 85 85 83 81 79 76
55 54 54 55 55 55 55 56 56 57 59 60 61 62 62 63 64 64 64 64 64 65 66 67 69 70 72 74 76 78 80 81 83 84 85 84 83 82 81 80 78 76 73
55 55 55 55 56 56 56 57 57 59 60 61 62 63 64 64 64 64 64 65 65 66 67 69 71 72 74 76 77 79 80 82 82 83 83 83 81 80 78 76 74 72 69
56 56 56 56 56 56 57 58 59 61 62 63 63 64 64 64 64 64 65 65 66 67 69 71 73 74 76 77 78 80 81 82 83 82 81 80 80 79 76 73 71 69 65
Wind_Direction
188 187 189 198 218 245 273 291 302 307 312 315 318 319 319 320 321 322 322 323 324 324 324 323 323 323 322 322 321 321 321 320 320 319 319 318 318 317 316 316 315 313 312
203 207 217 232 248 264 278 288 296 301 306 310 312 313 314 316 317 317 318 319 320 320 320 320 320 320 320 320 320 320 320 320 319 319 319 318 317 316 315 315 314 313 311
221 227 237 249 260 271 280 288 293 298 302 305 307 309 310 311 312 314 315 316 317 317 317 317 318 318 318 319 319 318 319 319 319 319 318 317 316 315 315 314 312 311 310
235 242 249 258 267 274 281 287 292 297 300 302 303 304 306 307 309 311 312 313 314 314 315 316 316 317 317 318 317 317 318 318 318 318 318 317 315 315 314 313 312 310 309
245 251 257 264 271 277 282 287 292 295 297 299 300 302 304 305 307 308 309 311 312 313 313 314 315 316 316 316 316 316 317 317 318 318 317 316 314 314 313 312 311 309 308
252 257 263 268 273 278 282 287 290 293 295 297 299 300 302 303 305 306 307 309 310 311 312 313 314 315 315 316 316 316 316 316 317 317 316 314 314 313 312 311 310 309 307
257 261 266 270 274 278 282 285 288 291 293 295 297 299 301 302 303 305 306 307 308 310 311 313 313 314 314 315 315 315 315 316 316 316 315 314 313 312 312 311 309 308 307
259 264 268 271 275 279 282 284 287 289 291 293 295 297 299 300 302 303 305 306 307 309 311 312 313 313 314 315 315 315 315 315 316 315 314 313 313 312 311 310 308 307 306
262 266 269 272 276 279 281 284 286 288 290 292 294 296 297 299 301 302 304 305 307 309 310 311 312 313 314 315 315 315 315 315 315 314 313 313 312 311 310 309 308 307 306
263 266 269 273 276 279 281 283 285 287 289 291 293 295 296 298 299 301 303 304 306 308 310 311 312 313 314 314 314 315 315 314 314 313 313 312 311 311 310 309 309 308 307
263 266 269 272 275 278 280 282 284 286 288 290 291 293 295 296 298 299 301 304 305 307 309 311 312 313 313 314 314 314 314 313 313 313 313 312 312 311 310 310 310 309 309
264 266 269 272 275 278 280 282 284 286 288 289 291 292 294 295 297 299 301 303 305 307 309 310 312 312 313 313 314 313 313 313 313 313 313 312 312 312 311 311 311 311 311
264 267 269 272 274 277 279 282 283 285 287 288 290 292 293 295 296 298 299 302 304 306 308 310 311 312 312 313 313 313 312 312 312 312 312 313 313 313 313 313 313 313 313
265 267 270 272 274 277 279 281 283 284 286 288 289 291 293 294 295 297 299 301 303 305 307 309 310 311 311 312 312 312 312 312 312 313 313 313 314 314 315 315 315 315 315
265 267 270 272 274 276 279 281 282 284 286 288 289 291 292 293 295 297 299 301 303 305 306 308 309 310 311 311 311 311 311 312 313 313 314 315 316 316 317 317 317 317 316
265 267 270 272 274 276 278 280 282 284 285 287 289 290 292 293 295 297 299 301 303 305 306 308 309 309 310 310 310 311 311 313 314 314 315 316 317 318 318 318 318 318 318
265 267 269 271 273 275 278 280 281 283 285 286 288 289 291 293 295 297 299 301 303 305 306 307 308 309 309 310 310 311 312 313 314 316 317 318 319 319 320 320 320 319 319
265 267 269 271 273 275 277 279 281 283 284 285 287 289 291 293 295 297 299 302 303 305 306 307 308 309 309 310 311 312 313 314 316 317 318 319 320 320 321 321 321 321 320
265 267 269 271 273 275 277 279 281 282 283 285 287 288 290 293 295 297 300 302 303 305 306 306 307 308 309 310 311 312 314 315 317 318 319 320 321 322 322 322 322 322 321
265 267 269 271 273 275 277 279 280 281 283 285 286 288 291 294 296 298 300 301 303 304 305 306 307 307 308 310 311 312 314 316 317 319 320 321 322 322 322 322 322 322 322
265 267 268 270 272 274 276 278 279 280 282 284 286 289 292 294 296 298 300 301 303 304 305 305 306 307 308 310 311 312 314 316 318 319 321 321 322 322 323 323 323 323 323
264 266 268 270 272 273 274 276 278 280 282 285 287 289 291 294 296 298 300 301 302 303 304 304 306 307 308 310 311 313 315 316 317 319 321 322 322 323 323 323 323 323 323
264 266 268 270 271 273 274 276 279 281 283 285 287 289 291 294 296 298 299 300 302 303 303 304 305 307 308 310 312 314 315 317 319 320 321 322 323 323 323 324 324 324 324
264 266 267 269 271 273 275 277 279 281 283 286 288 290 292 294 296 297 298 300 301 302 303 304 305 307 309 311 312 314 316 317 319 320 321 322 323 323 324 324 324 324 324
265 266 268 270 271 273 275 277 279 281 284 286 288 290 292 294 296 297 298 299 300 302 303 304 305 307 309 311 313 314 316 318 319 320 321 322 323 323 324 324 324 324 324
265 266 268 269 271 273 275 277 279 282 284 286 288 290 293 294 295 297 298 298 299 300 302 304 305 307 309 311 313 315 316 318 319 320 321 322 322 323 324 324 324 323 323
Height
5885 5885 5885 5885 5885 5885 5885 5884 5883 5882 5881 5880 5878 5876 5874 5872 5870 5867 5865 5862 5859 5856 5853 5849 5846 5842 5838 5834 5829 5825 5820 5816 5811 5806 5801 5796 5790 5785 5780 5775 5770 5765 5761
5883 5884 5884 5884 5884 5883 5883 5882 5881 5880 5878 5877 5875 5873 5871 5869 5866 5863 5861 5858 5855 5852 5848 5845 5841 5837 5832 5828 5823 5818 5814 5809 5803 5798 5793 5788 5782 5777 5772 5767 5762 5757 5752
5882 5882 5882 5882 5882 5881 5881 5880 5878 5877 5875 5874 5872 5869 5867 5865 5862 5859 5856 5853 5850 5847 5843 5839 5835 5831 5826 5821 5817 5812 5807 5801 5796 5790 5785 5780 5774 5769 5763 5758 5753 5748 5743
5879 5880 5879 5879 5879 5878 5878 5877 5875 5874 5872 5870 5868 5865 5862 5860 5857 5854 5851 5848 5844 5841 5837 5833 5829 5824 5820 5815 5810 5804 5799 5794 5788 5782 5777 5771 5765 5760 5754 5749 5744 5738 5733
5876 5876 5876 5876 5876 5875 5874 5873 5872 5870 5868 5865 5863 5860 5857 5854 5851 5848 5845 5842 5838 5834 5830 5826 5822 5817 5812 5807 5802 5796 5791 5785 5779 5774 5768 5762 5756 5750 5745 5739 5734 5728 5723
5873 5873 5873 5872 5872 5871 5870 5869 5867 5865 5863 5860 5858 5855 5852 5849 5845 5842 5839 5835 5831 5827 5823 5819 5814 5809 5804 5799 5793 5788 5782 5776 5770 5764 5758 5752 5746 5740 5734 5729 5723 5718 5712
5869 5869 5868 5868 5867 5866 5865 5864 5862 5860 5857 5855 5852 5849 5846 5842 5839 5835 5832 5828 5824 5819 5815 5810 5806 5800 5795 5790 5784 5778 5772 5766 5760 5754 5748 5742 5736 5729 5723 5718 5712 5706 5701
5864 5864 5863 5863 5862 5861 5859 5858 5856 5854 5851 5848 5846 5842 5839 5835 5831 5827 5824 5820 5816 5811 5807 5802 5797 5791 5786 5780 5774 5768 5762 5756 5750 5743 5737 5731 5725 5719 5712 5706 5700 5694 5688
5858 5858 5857 5857 5856 5855 5853 5851 5849 5847 5845 5842 5839 5835 5832 5828 5824 5819 5815 5811 5807 5802 5798 5793 5787 5782 5776 5770 5764 5758 5752 5745 5739 5732 5726 5720 5713 5707 5700 5694 5688 5681 5674
5852 5851 5851 5850 5849 5848 5846 5844 5842 5840 5838 5835 5831 5828 5824 5820 5816 5811 5807 5802 5798 5793 5788 5783 5777 5771 5765 5759 5753 5747 5740 5734 5727 5721 5714 5708 5701 5694 5688 5681 5674 5666 5659
5845 5844 5844 5843 5842 5840 5839 5837 5834 5832 5830 5827 5824 5820 5816 5812 5807 5803 5798 5793 5788 5783 5778 5772 5766 5761 5754 5748 5742 5735 5729 5722 5716 5709 5702 5695 5688 5681 5674 5666 5658 5650 5642
5837 5837 5836 5835 5834 5832 5830 5828 5826 5824 5821 5818 5815 5811 5808 5804 5799 5794 5789 5783 5778 5773 5767 5762 5756 5750 5743 5737 5730 5723 5717 5710 5703 5696 5689 5682 5675 5667 5659 5651 5642 5633 5623
5829 5828 5827 5826 5825 5823 5821 5819 5817 5815 5812 5809 5805 5802 5798 5794 5790 5785 5780 5775 5769 5763 5757 5751 5745 5739 5732 5725 5718 5711 5704 5698 5691 5684 5676 5669 5661 5652 5644 5634 5624 5614 5603
5820 5819 5818 5817 5815 5814 5812 5809 5807 5805 5802 5799 5795 5792 5788 5784 5780 5775 5771 5766 5760 5754 5747 5741 5734 5728 5721 5714 5706 5699 5692 5685 5677 5670 5662 5654 5645 5636 5627 5617 5606 5594 5582
5810 5809 5808 5807 5805 5803 5801 5799 5797 5794 5791 5788 5784 5781 5777 5773 5769 5764 5760 5755 5750 5744 5737 5730 5723 5716 5709 5702 5694 5687 5679 5672 5664 5656 5647 5639 5629 5620 5609 5598 5586 5574 5561
5799 5798 5797 5796 5794 5793 5790 5788 5786 5783 5780 5777 5773 5770 5766 5762 5758 5753 5748 5743 5737 5731 5725 5719 5711 5705 5697 5690 5682 5674 5666 5658 5650 5641 5632 5623 5613 5602 5591 5579 5567 5554 5540
5788 5787 5786 5784 5783 5781 5779 5777 5774 5771 5768 5765 5762 5758 5755 5751 5746 5741 5736 5731 5725 5719 5713 5706 5699 5692 5684 5677 5669 5661 5653 5644 5636 5626 5616 5606 5595 5584 5572 5559 5546 5533 5518
5776 5775 5774 5773 5771 5769 5767 5765 5762 5759 5756 5753 5750 5746 5743 5738 5734 5729 5724 5718 5712 5706 5700 5693 5686 5679 5672 5664 5656 5648 5639 5630 5621 5611 5600 5589 5578 5566 5553 5540 5526 5512 5497
5763 5762 5762 5760 5759 5757 5755 5752 5750 5747 5744 5741 5737 5734 5730 5726 5721 5716 5711 5705 5699 5693 5686 5680 5673 5666 5659 5652 5644 5635 5626 5616 5606 5596 5584 5573 5561 5548 5534 5521 5506 5492 5478
5750 5749 5749 5747 5746 5744 5742 5740 5737 5734 5731 5728 5725 5721 5717 5713 5708 5703 5697 5692 5686 5679 5673 5666 5660 5653 5646 5638 5631 5622 5613 5602 5592 5581 5568 5556 5544 5530 5516 5503 5490 5475 5459
5737 5736 5735 5734 5732 5731 5729 5726 5724 5721 5718 5715 5712 5708 5704 5699 5694 5689 5684 5678 5672 5666 5659 5653 5646 5639 5632 5624 5617 5608 5599 5589 5578 5567 5554 5540 5528 5515 5500 5485 5471 5457 5443
5723 5722 5721 5720 5719 5717 5715 5713 5711 5708 5705 5702 5698 5694 5690 5685 5680 5675 5669 5664 5658 5652 5645 5639 5632 5625 5617 5610 5601 5592 5583 5575 5566 5555 5542 5526 5511 5497 5483 5469 5455 5441 5428
5709 5709 5708 5707 5705 5704 5702 5699 5697 5694 5691 5688 5684 5680 5676 5671 5666 5661 5655 5649 5643 5637 5631 5625 5618 5610 5603 5595 5587 5578 5567 5556 5545 5534 5524 5513 5497 5482 5467 5453 5440 5427 5414
5695 5695 5694 5693 5692 5690 5688 5686 5683 5680 5677 5674 5670 5666 5662 5657 5651 5646 5641 5635 5629 5622 5617 5610 5603 5596 5587 5579 5570 5561 5551 5541 5529 5516 5505 5496 5483 5470 5455 5440 5426 5413 5401
5681 5681 5680 5679 5678 5676 5674 5671 5669 5666 5663 5659 5655 5651 5647 5642 5637 5631 5626 5620 5614 5607 5601 5594 5587 5579 5571 5563 5554 5544 5534 5524 5515 5503 5489 5478 5468 5458 5445 5429 5415 5402 5389
5667 5666 5666 5665 5663 5662 5659 5657 5654 5651 5648 5644 5640 5636 5632 5627 5621 5616 5611 5605 5599 5592 5585 5578 5571 5563 5555 5546 5537 5527 5517 5507 5496 5487 5475 5463 5451 5440 5432 5421 5405 5391 5379